TimeEDT,TemperatureF,Dew PointF,Humidity,Sea Level PressureIn,VisibilityMPH,Wind Direction,Wind SpeedMPH,Gust SpeedMPH,PrecipitationIn,Events,Conditions,WindDirDegrees,DateUTC
12:53 AM,73.9,72.0,93,30.15,10.0,Calm,Calm,-,N/A,,Overcast,0,2013-08-22 04:53:00
1:53 AM,73.9,71.1,91,30.15,10.0,Calm,Calm,-,N/A,,Clear,0,2013-08-22 05:53:00
2:53 AM,73.9,71.1,91,30.14,10.0,Calm,Calm,-,N/A,,Clear,0,2013-08-22 06:53:00
3:53 AM,73.0,71.1,93,30.13,10.0,SSW,3.5,-,N/A,,Clear,210,2013-08-22 07:53:00
4:53 AM,73.9,72.0,93,30.12,10.0,Calm,Calm,-,N/A,,Clear,0,2013-08-22 08:53:00
5:53 AM,73.9,71.1,91,30.12,9.0,Calm,Calm,-,N/A,,Clear,0,2013-08-22 09:53:00
6:53 AM,73.9,72.0,93,30.13,9.0,Calm,Calm,-,N/A,,Clear,0,2013-08-22 10:53:00
7:01 AM,73.4,71.6,94,30.14,9.0,Calm,Calm,-,N/A,,Partly Cloudy,0,2013-08-22 11:01:00
7:53 AM,75.0,73.0,94,30.15,10.0,West,3.5,-,N/A,,Clear,260,2013-08-22 11:53:00
8:53 AM,77.0,73.0,88,30.15,10.0,West,4.6,-,N/A,,Mostly Cloudy,270,2013-08-22 12:53:00
9:53 AM,79.0,73.0,82,30.15,10.0,SW,5.8,-,N/A,,Clear,230,2013-08-22 13:53:00
10:53 AM,82.9,72.0,69,30.14,10.0,West,5.8,-,N/A,,Clear,260,2013-08-22 14:53:00
11:53 AM,86.0,73.0,65,30.13,10.0,WSW,5.8,-,N/A,,Clear,240,2013-08-22 15:53:00
12:53 PM,88.0,73.0,61,30.11,10.0,Calm,Calm,-,N/A,,Partly Cloudy,0,2013-08-22 16:53:00
1:53 PM,88.0,73.0,61,30.09,10.0,NW,4.6,-,N/A,,Scattered Clouds,310,2013-08-22 17:53:00
2:53 PM,90.0,73.0,57,30.05,10.0,Variable,4.6,-,N/A,,Scattered Clouds,0,2013-08-22 18:53:00
3:53 PM,90.0,72.0,55,30.03,10.0,West,3.5,-,N/A,,Partly Cloudy,270,2013-08-22 19:53:00
4:53 PM,87.1,71.1,59,30.01,10.0,Calm,Calm,-,N/A,,Mostly Cloudy,0,2013-08-22 20:53:00
5:37 PM,80.6,73.4,79,30.05,10.0,SSE,16.1,-,N/A,,Mostly Cloudy,150,2013-08-22 21:37:00
5:53 PM,78.1,71.1,79,30.04,10.0,SSE,16.1,23.0,N/A,,Mostly Cloudy,160,2013-08-22 21:53:00
6:23 PM,75.2,71.6,89,30.05,10.0,South,9.2,-,N/A,Rain-Thunderstorm,Light Thunderstorms and Rain,180,2013-08-22 22:23:00
6:36 PM,73.4,71.6,94,30.07,1.8,SW,12.7,-,N/A,Rain-Thunderstorm,Heavy Thunderstorms and Rain,230,2013-08-22 22:36:00
6:51 PM,73.4,71.6,94,30.06,0.5,SSW,6.9,-,N/A,Fog-Rain-Thunderstorm,Heavy Thunderstorms and Rain,200,2013-08-22 22:51:00
6:53 PM,73.9,72.0,93,30.05,0.5,SSW,11.5,24.2,N/A,Fog-Rain-Thunderstorm,Heavy Thunderstorms and Rain,200,2013-08-22 22:53:00
6:57 PM,73.4,69.8,88,30.05,1.8,SSW,17.3,32.2,0.02,Rain-Thunderstorm,Heavy Thunderstorms and Rain,200,2013-08-22 22:57:00
7:12 PM,73.4,69.8,88,30.04,1.8,South,9.2,28.8,0.40,Rain-Thunderstorm,Heavy Thunderstorms and Rain,190,2013-08-22 23:12:00
7:29 PM,73.4,69.8,88,30.03,1.8,South,3.5,-,0.41,Thunderstorm,Unknown,170,2013-08-22 23:29:00
7:53 PM,73.0,70.0,90,30.04,10.0,Calm,Calm,-,0.41,Thunderstorm,Mostly Cloudy,0,2013-08-22 23:53:00
8:53 PM,73.9,71.1,91,30.07,10.0,NW,5.8,-,N/A,Rain-Thunderstorm,Light Rain,310,2013-08-23 00:53:00
9:13 PM,73.4,71.6,94,30.06,10.0,Calm,Calm,-,0.00,Rain,Light Rain,0,2013-08-23 01:13:00
9:53 PM,73.0,71.1,93,30.04,10.0,Calm,Calm,-,0.00,,Partly Cloudy,0,2013-08-23 01:53:00
10:53 PM,73.0,71.1,93,30.05,10.0,WSW,3.5,-,N/A,,Clear,250,2013-08-23 02:53:00
11:53 PM,73.0,71.1,93,30.04,10.0,Calm,Calm,-,N/A,,Clear,0,2013-08-23 03:53:00